[[{"header":{"parameterUnit":"m.s-1","parameterCategory":1,"la1":30.2991,"la2":30.254,"lo1":-89.0895,"lo2":-89.0444,"dy":0.0017,"dx":0.0017,"nx":28,"ny":28,"refTime":"2025-05-18T03:00:00:Z","depth":0,"parameterNumber":2,"parameterNumberName":"U-component_of_WINDS"},"data":[0,0,0,0,0,0,0,0,0,0,0,0,0,0,0,0,0,0,0,0,0,0,0,0,0,0,0,0,0,0,0,0,0,0,0,0,0,0,0,0,0,0,0,0,0,0,0,0,0,0,0,0,0,0,0,0,0,0,-0.3969,-0.3967,0,-0.3807,-0.3805,-0.3803,-0.3727,-0.3727,-0.3727,-0.3728,-0.3559,-0.3555,-0.355,0,0,0,0,0,0,0,0,0,0,0,0,0,-0.4212,-0.4208,-0.3969,-0.3967,-0.3965,-0.3807,-0.3805,-0.3802,-0.3727,-0.3727,-0.3727,-0.3728,-0.3561,-0.3555,-0.355,0,0,0,0,0,0,0,0,0,0,0,0,0,-0.4084,-0.4206,-0.3969,-0.3908,-0.3901,-0.3807,-0.3805,-0.3802,-0.3727,-0.3727,-0.3727,-0.3728,-0.3563,-0.3556,-0.3549,-0.3503,0,0,-0.3528,-0.3525,0,0,0,0,0,0,0,0,-0.4091,-0.4075,-0.3919,-0.3912,-0.3904,-0.3787,-0.3828,-0.3701,-0.3727,-0.3793,-0.3728,-0.3728,-0.3635,-0.3622,-0.3591,-0.3495,-0.3488,-0.3527,-0.3523,-0.352,-0.3518,0,0,0,0,0,0,0,-0.41,-0.4081,-0.3904,-0.3917,-0.3908,-0.3888,-0.387,-0.3804,-0.3715,-0.3787,-0.3782,-0.3763,-0.3631,-0.3598,-0.3587,-0.3485,-0.3528,-0.3522,-0.3517,-0.3515,-0.3343,-0.3342,0,0,0,0,0,0,-0.4119,-0.4089,-0.391,-0.39,-0.4,-0.3884,-0.3864,-0.3825,-0.3715,-0.3699,-0.3763,-0.3761,-0.361,-0.3595,-0.358,-0.3519,-0.352,-0.3514,-0.351,-0.3343,-0.3343,-0.3342,0,0,0,0,0,0,-0.4124,-0.4104,-0.3916,-0.3993,-0.3967,-0.388,-0.3836,-0.3821,-0.3788,-0.3697,-0.3681,-0.3746,-0.3609,-0.359,-0.3523,-0.3512,-0.3511,-0.3505,-0.3344,-0.3343,-0.3342,-0.3396,0,0,0,0,0,0,-0.4132,-0.4106,-0.4088,-0.3993,-0.3964,-0.3862,-0.3835,-0.3818,-0.3777,-0.3772,-0.3677,-0.3661,-0.3608,-0.3534,-0.3516,-0.3502,-0.3499,-0.3344,-0.3343,-0.3343,-0.3395,-0.3397,-0.3399,0,0,0,0,0,-0.4141,-0.4109,-0.4088,-0.4066,-0.3939,-0.3862,-0.3845,-0.3784,-0.3777,-0.3757,-0.3699,-0.3665,-0.3516,-0.3527,-0.3507,-0.3491,-0.3345,-0.3344,-0.3343,-0.3394,-0.3397,-0.3399,0,0,0,0,0,0,-0.4205,-0.4096,-0.407,-0.4007,-0.3944,-0.3849,-0.3823,-0.3789,-0.3727,-0.3724,-0.3651,-0.3631,-0.357,-0.3524,-0.3538,-0.344,-0.3427,-0.3422,-0.3473,-0.3475,-0.3477,-0.3489,-0.3493,0,0,0,0,0,-0.4212,-0.4158,-0.4065,-0.4019,-0.3988,-0.3912,-0.3875,-0.3834,-0.3766,-0.3739,-0.3675,-0.361,-0.3548,-0.3509,-0.3447,-0.3388,-0.3366,-0.3367,-0.3369,-0.3371,-0.3368,-0.3332,-0.3332,-0.3339,-0.3339,-0.3339,0,0,-0.4225,-0.4159,-0.4129,-0.403,-0.3976,-0.3922,-0.3889,-0.3833,-0.3792,-0.373,-0.3662,-0.3614,-0.3536,-0.3472,-0.3441,-0.3432,-0.3361,-0.337,-0.3373,-0.3367,-0.3331,-0.3331,-0.333,-0.3338,-0.3339,-0.3339,0,0,-0.4221,-0.4166,-0.4121,-0.4068,-0.3988,-0.3937,-0.3926,-0.3836,-0.3801,-0.3733,-0.3685,-0.3635,-0.353,-0.3477,-0.3436,-0.3413,-0.3378,-0.3394,-0.3406,-0.3372,-0.3372,-0.3371,-0.3362,-0.336,-0.3391,-0.3391,-0.3391,0,-0.4248,-0.4165,-0.4102,-0.4048,-0.4006,-0.3948,-0.3901,-0.3853,-0.3756,-0.3728,-0.372,-0.3588,-0.3531,-0.3454,-0.3448,-0.3417,-0.3402,-0.3404,-0.3377,-0.3376,-0.3374,-0.3364,-0.3361,-0.3394,-0.3393,-0.3393,-0.3393,0,-0.4201,-0.4144,-0.4117,-0.4026,-0.3981,-0.3931,-0.386,-0.3821,-0.3785,-0.3735,-0.3665,-0.3596,-0.3519,-0.3498,-0.3461,-0.3415,-0.3412,-0.3391,-0.3376,-0.3377,-0.3367,-0.3363,-0.3397,-0.3396,-0.3396,-0.3395,0,0,-0.4232,-0.4108,-0.4099,-0.4057,-0.3964,-0.3918,-0.3866,-0.3792,-0.376,-0.3695,-0.3649,-0.3563,-0.3543,-0.3497,-0.3453,-0.3424,-0.341,-0.3406,-0.3404,-0.3409,-0.3354,-0.337,-0.3367,-0.3387,-0.3386,-0.3385,-0.3361,0,-0.4215,-0.4119,-0.4062,-0.3989,-0.3935,-0.388,-0.3834,-0.3772,-0.3724,-0.3671,-0.3617,-0.3557,-0.3536,-0.3508,-0.3476,-0.3418,-0.3398,-0.3419,-0.3342,-0.334,-0.3363,-0.3362,-0.3378,-0.3358,-0.3356,-0.3356,-0.3355,0,-0.4183,-0.412,-0.4043,-0.3956,-0.3931,-0.3891,-0.3818,-0.3769,-0.3697,-0.3664,-0.3613,-0.357,-0.3511,-0.3502,-0.3421,-0.3437,-0.3402,-0.3369,-0.3366,-0.3356,-0.3347,-0.3351,-0.3351,-0.3348,-0.3349,-0.3349,-0.335,0,-0.4213,-0.4109,-0.4049,-0.4015,-0.3913,-0.3886,-0.3842,-0.377,-0.3729,-0.3666,-0.3638,-0.3569,-0.353,-0.3477,-0.3415,-0.3414,-0.334,-0.3326,-0.331,-0.3312,-0.3296,-0.3298,-0.329,-0.3275,-0.3275,-0.3276,-0.3276,0,-0.42,-0.4154,-0.4062,-0.4025,-0.3972,-0.3906,-0.3855,-0.3806,-0.3744,-0.3696,-0.3643,-0.3599,-0.3522,-0.3468,-0.3419,-0.3359,-0.3342,-0.3313,-0.3301,-0.3318,-0.3321,-0.3293,-0.3293,-0.3275,-0.3275,-0.3275,-0.3275,0,-0.4224,-0.416,-0.4091,-0.4,-0.3976,-0.3941,-0.3863,-0.3825,-0.3774,-0.3714,-0.3697,-0.3617,-0.3551,-0.3485,-0.3396,-0.3363,-0.3304,-0.3287,-0.3328,-0.3321,-0.331,-0.3311,-0.3282,-0.3275,-0.3267,-0.3267,-0.3267,0,-0.422,-0.4184,-0.4089,-0.4053,-0.4011,-0.3954,-0.3912,-0.3846,-0.3804,-0.372,-0.3692,-0.3623,-0.3563,-0.3461,-0.3394,-0.3326,-0.3307,-0.3302,-0.3296,-0.3314,-0.3306,-0.3309,-0.3304,-0.3304,-0.3304,-0.3304,-0.3305,0,-0.4219,-0.4189,-0.4131,-0.4062,-0.4013,-0.3955,-0.3896,-0.387,-0.3791,-0.3747,-0.368,-0.3634,-0.3543,-0.3475,-0.3399,-0.3352,-0.3315,-0.3307,-0.33,-0.3316,-0.3341,-0.3327,-0.3334,-0.3308,-0.3307,-0.3307,-0.3307,-0.3307,-0.4227,-0.4193,-0.4121,-0.4058,-0.4006,-0.3951,-0.3911,-0.3856,-0.3799,-0.372,-0.3684,-0.3617,-0.3545,-0.344,-0.3394,-0.334,-0.333,-0.3319,-0.3316,-0.3315,-0.3318,-0.3351,-0.3325,-0.3325,-0.3325,-0.3325,-0.3325,0,-0.4223,-0.4174,-0.4117,-0.4035,-0.3986,-0.3956,-0.3889,-0.3849,-0.379,-0.3727,-0.367,-0.3593,-0.3526,-0.3455,-0.3384,-0.3354,-0.3335,-0.3337,-0.3338,-0.3328,-0.3332,-0.3345,-0.3354,-0.3354,-0.3354,-0.3354,-0.3354,-0.3354,-0.4215,-0.4154,-0.4116,-0.4029,-0.398,-0.3914,-0.3878,-0.3827,-0.3776,-0.3692,-0.3637,-0.3591,-0.3525,-0.3449,-0.3386,-0.3367,-0.3343,-0.335,-0.3326,-0.333,-0.3328,-0.3326,-0.3338,-0.3345,-0.3345,-0.3327,-0.3327,-0.3326]},{"header":{"parameterUnit":"m.s-1","parameterCategory":1,"la1":30.2991,"la2":30.254,"lo1":-89.0895,"lo2":-89.0444,"dy":0.0017,"dx":0.0017,"nx":28,"ny":28,"refTime":"2025-05-18T03:00:00:Z","depth":0,"parameterNumber":3,"parameterNumberName":"V-component_of_WINDS"},"data":[0,0,0,0,0,0,0,0,0,0,0,0,0,0,0,0,0,0,0,0,0,0,0,0,0,0,0,0,0,0,0,0,0,0,0,0,0,0,0,0,0,0,0,0,0,0,0,0,0,0,0,0,0,0,0,0,0,0,4.2472,4.2472,0,4.2495,4.2496,4.2496,4.2455,4.2453,4.2452,4.2451,4.2471,4.2473,4.2475,0,0,0,0,0,0,0,0,0,0,0,0,0,4.2389,4.239,4.2472,4.2472,4.2472,4.2495,4.2496,4.2496,4.2455,4.2453,4.2452,4.245,4.2471,4.2473,4.2475,0,0,0,0,0,0,0,0,0,0,0,0,0,4.242,4.2391,4.2472,4.2455,4.2453,4.2495,4.2496,4.2496,4.2455,4.2453,4.2451,4.2449,4.247,4.2473,4.2475,4.2534,0,0,4.2484,4.2485,0,0,0,0,0,0,0,0,4.2418,4.2423,4.2457,4.2456,4.2455,4.247,4.2474,4.2509,4.2456,4.2454,4.2451,4.2448,4.2472,4.2475,4.2484,4.2535,4.2536,4.2484,4.2486,4.2487,4.2488,0,0,0,0,0,0,0,4.2416,4.2421,4.2481,4.2457,4.2456,4.2445,4.2447,4.248,4.2475,4.2454,4.2451,4.2455,4.2471,4.2481,4.2484,4.2536,4.2484,4.2486,4.2488,4.2489,4.2638,4.2641,0,0,0,0,0,0,4.2416,4.242,4.248,4.2482,4.2431,4.2448,4.2451,4.2467,4.2474,4.2473,4.2457,4.2453,4.2477,4.2481,4.2484,4.2555,4.2487,4.2489,4.2491,4.2636,4.2639,4.2641,0,0,0,0,0,0,4.2415,4.2422,4.2479,4.245,4.2457,4.2452,4.2471,4.2469,4.2478,4.2476,4.2474,4.2468,4.2476,4.248,4.2523,4.2555,4.2491,4.2493,4.2633,4.2637,4.264,4.2695,0,0,0,0,0,0,4.2412,4.2422,4.2444,4.2451,4.2458,4.2518,4.2473,4.2471,4.2484,4.2479,4.2486,4.2485,4.2475,4.2519,4.2525,4.2557,4.2495,4.263,4.2635,4.2639,4.269,4.27,4.2708,0,0,0,0,0,4.241,4.2457,4.2445,4.2453,4.2486,4.252,4.2524,4.2512,4.2487,4.2509,4.2508,4.2485,4.255,4.2523,4.253,4.2564,4.2628,4.2634,4.2639,4.2686,4.2698,4.2708,0,0,0,0,0,0,4.2452,4.2458,4.2445,4.2496,4.2508,4.2513,4.254,4.2524,4.2542,4.2537,4.252,4.2522,4.2568,4.257,4.254,4.2622,4.2585,4.2592,4.2619,4.263,4.2639,4.2637,4.2498,0,0,0,0,0,4.2468,4.2495,4.2498,4.2543,4.255,4.2545,4.2558,4.2549,4.2559,4.2564,4.2565,4.2576,4.2599,4.2615,4.2635,4.2691,4.2692,4.2717,4.2726,4.2733,4.274,4.2771,4.2782,4.2658,4.2658,4.2658,0,0,4.2499,4.2506,4.2524,4.2552,4.256,4.2589,4.2549,4.258,4.2601,4.2568,4.2609,4.2611,4.2621,4.2671,4.2693,4.2674,4.2774,4.274,4.2746,4.2748,4.2777,4.2789,4.2799,4.2662,4.2661,4.2661,0,0,4.2573,4.258,4.262,4.263,4.2643,4.264,4.2649,4.2657,4.2658,4.2699,4.2675,4.2699,4.2739,4.2749,4.2758,4.2839,4.2819,4.2846,4.2892,4.2923,4.2932,4.2941,4.2971,4.2981,4.2852,4.2852,4.2852,0,4.261,4.2654,4.2642,4.2676,4.2689,4.2663,4.2703,4.2713,4.2732,4.2741,4.2721,4.2772,4.2777,4.2829,4.2849,4.2858,4.2868,4.2845,4.2932,4.2941,4.2949,4.2977,4.2988,4.2855,4.2855,4.2854,4.2854,0,4.27,4.273,4.2761,4.2783,4.2799,4.2836,4.283,4.2848,4.2837,4.2836,4.2878,4.2884,4.2907,4.2918,4.2907,4.297,4.2958,4.2935,4.2898,4.2964,4.299,4.3001,4.286,4.2859,4.2858,4.2857,0,0,4.2798,4.2816,4.2827,4.2838,4.2852,4.2875,4.2911,4.2935,4.2952,4.2966,4.2996,4.3032,4.3012,4.3023,4.3013,4.304,4.3105,4.3014,4.3014,4.3031,4.3175,4.3193,4.3206,4.3092,4.3094,4.3095,4.3175,0,4.2872,4.2937,4.2928,4.2989,4.3018,4.2995,4.3026,4.3039,4.3039,4.3062,4.3062,4.3088,4.3059,4.3066,4.3091,4.3091,4.3133,4.3085,4.3119,4.3121,4.3118,4.3219,4.3237,4.3312,4.3185,4.3187,4.3188,0,4.2967,4.2988,4.3053,4.3065,4.3077,4.3106,4.3128,4.3151,4.3165,4.3163,4.3178,4.3163,4.3199,4.3162,4.3211,4.3179,4.3192,4.3195,4.3197,4.32,4.3158,4.3225,4.3335,4.3347,4.3203,4.3202,4.3201,0,4.3034,4.3078,4.3123,4.3133,4.3148,4.3169,4.3176,4.3188,4.3204,4.3223,4.3233,4.3256,4.3269,4.3286,4.3278,4.3252,4.333,4.3291,4.333,4.333,4.3347,4.3346,4.3462,4.3355,4.3355,4.3355,4.3354,0,4.3118,4.3158,4.3154,4.3182,4.3227,4.3218,4.3262,4.3266,4.3278,4.3305,4.3286,4.3312,4.33,4.3325,4.3319,4.3362,4.3367,4.3367,4.3365,4.3369,4.337,4.3378,4.3373,4.3358,4.3357,4.3356,4.3356,0,4.32,4.3199,4.3247,4.3259,4.3263,4.3296,4.3305,4.3331,4.3331,4.3367,4.3374,4.3373,4.3403,4.3397,4.3428,4.3424,4.3478,4.3469,4.3474,4.3472,4.3511,4.3508,4.3637,4.3653,4.3535,4.3537,4.3537,0,4.3254,4.3285,4.3302,4.332,4.333,4.3359,4.3376,4.3368,4.3386,4.3405,4.3429,4.3457,4.3479,4.3527,4.3528,4.3553,4.3544,4.3588,4.3548,4.3552,4.3546,4.3545,4.3548,4.3596,4.3597,4.3598,4.3599,0,4.335,4.3348,4.3375,4.3402,4.3423,4.3443,4.3461,4.3477,4.347,4.3492,4.3523,4.354,4.3574,4.3602,4.3625,4.3631,4.3615,4.3612,4.3622,4.3627,4.3629,4.363,4.3497,4.3609,4.3608,4.3607,4.3607,4.3606,4.342,4.3448,4.3465,4.3495,4.3509,4.3527,4.3553,4.3557,4.3583,4.3611,4.3604,4.364,4.3654,4.3684,4.3693,4.372,4.3703,4.3718,4.3722,4.3726,4.3731,4.3625,4.3724,4.3723,4.3723,4.3723,4.3723,0,4.3516,4.3527,4.3555,4.3582,4.3607,4.3591,4.3611,4.3631,4.3664,4.3679,4.3702,4.3738,4.3766,4.3771,4.3797,4.3818,4.3811,4.3825,4.3824,4.3826,4.3744,4.3733,4.3831,4.3831,4.3831,4.3831,4.3831,4.3831,4.3569,4.3616,4.3617,4.3671,4.368,4.3717,4.373,4.3746,4.3759,4.3801,4.3825,4.3829,4.384,4.3868,4.3892,4.3893,4.3904,4.3921,4.3919,4.3842,4.3831,4.3821,4.3811,4.3924,4.3924,4.3999,4.4,4.4]}]]